This demonstration page uses our WeatherBlox Daily Observations layout. Learn more.

Left ArrowRight Arrow

Hourly Observations for January 22, 2019

Temp ( °F °C ) Dew Point ( °F °C ) Humidity (%) Winds ( mph kmh ) Pressure ( in mb ) Visibility ( mi km ) Precip ( " mm )
12:59 am 00:59 Clear 23 -5 6 -14.4 48 48 NNW 15 24 30.61 1037 10 16 0.00 0.00
1:59 am 01:59 Clear 21 -6.1 3 -16.1 45 45 NNW 16 26 30.64 1038 10 16 0.00 0.00
2:59 am 02:59 Clear 20 -6.7 3 -16.1 48 48 NNW 12 19 30.63 1037 10 16 0.00 0.00
3:59 am 03:59 Clear 19 -7.2 3 -16.1 49 49 NW 14 22 30.67 1039 10 16 0.00 0.00
4:59 am 04:59 Clear 19 -7.2 4 -15.6 51 51 NNW 13 20 30.66 1038 10 16 0.00 0.00
5:59 am 05:59 Clear 19 -7.2 6 -14.4 57 57 N 12 19 30.67 1039 10 16 0.00 0.00
6:59 am 06:59 Clear 20 -6.7 9 -12.8 62 62 N 9 15 30.68 1039 10 16 0.00 0.00
7:59 am 07:59 Mostly Sunny 20 -6.7 9 -12.8 62 62 NW 10 17 30.71 1040 10 16 0.00 0.00
8:59 am 08:59 Mostly Sunny 22 -5.6 10 -12.2 60 60 NNW 13 20 30.74 1041 10 16 0.00 0.00
9:59 am 09:59 Mostly Sunny 24 -4.4 11 -11.7 57 57 NNW 10 17 30.76 1042 10 16 0.00 0.00
10:59 am 10:59 Mostly Sunny 27 -2.8 13 -10.6 55 55 NNW 7 11 30.76 1042 10 16 0.00 0.00
11:59 am 11:59 Mostly Sunny 28 -2.2 15 -9.4 58 58 NNW 8 13 30.74 1041 10 16 0.00 0.00
12:59 pm 12:59 Mostly Sunny 29 -1.7 15 -9.4 56 56 N 6 9 30.71 1040 10 16 0.00 0.00
1:59 pm 13:59 Mostly Sunny 31 -0.6 14 -10 49 49 Calm 30.70 1040 10 16 0.00 0.00
2:59 pm 14:59 Mostly Sunny 31 -0.6 16 -8.9 54 54 VRB 5 7 30.69 1039 10 16 0.00 0.00
3:59 pm 15:59 Partly Cloudy 31 -0.6 16 -8.9 54 54 E 6 9 30.67 1039 10 16 0.00 0.00
4:59 pm 16:59 Mostly Cloudy 30 -1.1 19 -7.2 64 64 ENE 6 9 30.66 1038 10 16 0.00 0.00
5:59 pm 17:59 Mostly Cloudy 28 -2.2 19 -7.2 69 69 SE 3 6 30.67 1039 10 16 0.00 0.00
6:59 pm 18:59 Mostly Cloudy 28 -2.2 20 -6.7 72 72 ESE 6 9 30.67 1039 10 16 0.00 0.00
7:59 pm 19:59 Mostly Cloudy 28 -2.2 20 -6.7 72 72 SSE 3 6 30.66 1038 10 16 0.00 0.00
8:59 pm 20:59 Mostly Cloudy 28 -2.2 20 -6.7 72 72 SSE 3 6 30.65 1038 10 16 0.00 0.00
9:59 pm 21:59 Mostly Cloudy 28 -2.2 20 -6.7 72 72 SSE 3 6 30.64 1038 10 16 0.00 0.00
10:59 pm 22:59 Mostly Cloudy 28 -2.2 21 -6.1 75 75 Calm 30.63 1037 10 16 0.00 0.00
11:59 pm 23:59 Mostly Cloudy 28 -2.2 20 -6.7 72 72 Calm 30.60 1036 10 16 0.00 0.00

Powered by AerisWeather